This is the latest recevied weather packets stored in our database for station/object N9BID. If no packets are shown the sender has not sent any weather packets the latest 10 day(s).
| Time | Temp. | Humidity | Pressure | Rain* | Wind** | Luminosity | Snow |
|---|---|---|---|---|---|---|---|
| 1777944636 | 9.44° C | 58% | 993.4 hPa | 0 mm | - | 0 W/m² | - |
| 1777944334 | 9.44° C | 57% | 993.4 hPa | 0 mm | - | 0 W/m² | - |
| 1777944030 | 10° C | 59% | 993.2 hPa | 0 mm | - | 0 W/m² | - |
| 1777943725 | 10° C | 57% | 993.5 hPa | 0 mm | - | 0 W/m² | - |
| 1777943423 | 10° C | 57% | 993.1 hPa | 0 mm | - | 4 W/m² | - |
| 1777943118 | 10.56° C | 57% | 993 hPa | 0 mm | - | 8 W/m² | - |
| 1777942815 | 10.56° C | 58% | 992.8 hPa | 0 mm | - | 10 W/m² | - |
| 1777942512 | 11.11° C | 56% | 992.7 hPa | 0 mm | - | 13 W/m² | - |
| 1777942209 | 11.11° C | 56% | 992.7 hPa | 0 mm | - | 16 W/m² | - |
| 1777941906 | 11.11° C | 55% | 992.4 hPa | 0 mm | - | 24 W/m² | - |
| 1777941603 | 11.67° C | 55% | 992.2 hPa | 0 mm | - | 27 W/m² | - |
| 1777941300 | 11.67° C | 53% | 992.4 hPa | 0 mm | - | 32 W/m² | - |
| 1777940996 | 11.67° C | 54% | 992.1 hPa | 0 mm | - | 33 W/m² | - |
| 1777940692 | 11.67° C | 54% | 992.1 hPa | 0 mm | - | 40 W/m² | - |
| 1777940391 | 11.67° C | 54% | 992.1 hPa | 0 mm | - | 44 W/m² | - |
| 1777940088 | 12.22° C | 54% | 992.1 hPa | 0 mm | - | 41 W/m² | - |
| 1777939785 | 12.22° C | 52% | 991.9 hPa | 0 mm | - | 42 W/m² | - |
| 1777939483 | 12.78° C | 50% | 991.9 hPa | 0 mm | - | 49 W/m² | - |
| 1777939180 | 12.78° C | 52% | 991.8 hPa | 0 mm | - | 57 W/m² | - |
| 1777938877 | 13.33° C | 53% | 991.4 hPa | 0 mm | - | 65 W/m² | - |
| 1777938573 | 13.33° C | 50% | 991.4 hPa | 0 mm | - | 87 W/m² | - |
| 1777938271 | 13.33° C | 49% | 991.4 hPa | 0 mm | - | 94 W/m² | - |
| 1777937967 | 13.33° C | 47% | 991.3 hPa | 0 mm | - | 84 W/m² | - |
| 1777937663 | 13.89° C | 47% | 991.4 hPa | 0 mm | - | 84 W/m² | - |
| 1777937360 | 13.89° C | 46% | 991.3 hPa | 0 mm | - | 139 W/m² | - |
* Rain latest hour (hover to see other rain measurements)
** Current wind speed in m/s (hover to see current wind gust speed)